Satellite-Ground Cal/Val Site Overpasses Predictions

Prediction of Satellite NPP Overpassing Cal/Val Site: Antarctic Dome C

Ground Cal/Val Site Location: Latitude: -75.10, Longitude: 123.35; Satellite-Ground Site NADIR distance within 100 km.

Table of predicted overpasses for the next 14.0 days since TLE Epoch: 1/11/2017
Interval Starting Time Ending Time Minimum Distance Time Minimum Distance (km)
1 01/13/2017 14:55:20 01/13/2017 14:55:48 01/13/2017 14:55:34 22.60
2 01/14/2017 14:36:36 01/14/2017 14:36:51 01/14/2017 14:36:44 84.51
3 01/15/2017 07:38:09 01/15/2017 07:38:36 01/15/2017 07:38:23 38.78
4 01/16/2017 07:19:22 01/16/2017 07:19:42 01/16/2017 07:19:32 71.26
5 01/18/2017 15:01:36 01/18/2017 15:01:59 01/18/2017 15:01:48 59.63
6 01/19/2017 14:42:46 01/19/2017 14:43:11 01/19/2017 14:42:58 49.67
7 01/20/2017 07:44:27 01/20/2017 07:44:47 01/20/2017 07:44:37 73.74
8 01/21/2017 07:25:33 01/21/2017 07:26:00 01/21/2017 07:25:47 34.09
9 01/23/2017 15:08:00 01/23/2017 15:08:06 01/23/2017 15:08:03 97.30


NCC Satellite Cal/Val Overpasses Prediction Service
